User: anonymous
Location: Vancouver
(49.2500°N, 123.1330°W)
Time: 07:13:21
(UTC-07:00)
Language:

Iridium 35 - Orbit

View from above orbital plane
View from above orbital plane
View from above satellite
View from above satellite

Ground track
Ground track

The orbit data is extracted from the following two-line orbital elements,

1 24966U 97056B   14264.42208085  .00000427  00000-0  14533-3 0  9981
2 24966 086.4010 016.5910 0002264 111.9159 248.2277 14.34215087889238
Epoch (UTC): 21 September 2014 10:07:47
Eccentricity: 0.0002264
inclination: 86.4010°
perigee height: 776 km
apogee height: 779 km
right ascension of ascending node: 16.5910°
argument of perigee: 111.9159°
revolutions per day: 14.34215087
mean anomaly at epoch: 248.2277°
orbit number at epoch: 88923

The dashed part of the orbit path shows where the satellite is in the earth's shadow,  

DLR